Location: Cowley
(49.5667°N, 114.0667°W)
Time: 10:29:21
(UTC+00:00)

Envisat - Pass Details

Date: 02 December 2021
Orbit: 764 x 766 km, 98.2° (Epoch: 23 January)

Event Time Altitude Azimuth Distance (km) Brightness Sun altitude
Rises 01:23:23 0° 224° (SW) 3,224 7.3 -16.2°
Reaches altitude 10° 01:27:32 10° 257° (WSW) 2,306 6.8 -16.8°
Maximum altitude 01:29:08 11° 276° (W) 2,213 6.5 -17.1°
Drops below altitude 10° 01:30:45 10° 294° (WNW) 2,312 6.2 -17.3°
Sets 01:34:56 0° 328° (NNW) 3,246 6.5 -18.0°
